When you browse on this site, cookies collect data to enhance your experience and personalize the content and advertising you see.
Visit our Privacy Policy to learn more. By continuing to use the site, you agree to this use of cookies and data.
  • In Hungary
  • List of Countries
  • For 7 days
  • Water Temperature
  • Weather Map
  • News
  • Weather Widgets
  • user-avatar
    Login

    Hourly Weather Blida

    Today, 13 November, Wednesday

    Time Temperature Precipitation Wind Pressure Humidity
    00:00 +9°C° 0 mm 3 mps 717 mmHg 83%
    01:00 +9°C° 0 mm 3 mps 717 mmHg 81%
    02:00 +7°C° 0 mm 4 mps 716 mmHg 78%
    03:00 +7°C° 0 mm 4 mps 716 mmHg 75%
    04:00 +7°C° 0 mm 4 mps 716 mmHg 74%
    05:00 +8°C° 0 mm 4 mps 716 mmHg 73%
    06:00 +8°C° 0 mm 4 mps 715 mmHg 71%
    07:00 +10°C° 0 mm 4 mps 716 mmHg 71%
    08:00 +10°C° 0 mm 5 mps 716 mmHg 71%
    09:00 +13°C° 0 mm 6 mps 716 mmHg 71%
    10:00 +14°C° 0 mm 7 mps 716 mmHg 69%
    11:00 +15°C° 0 mm 8 mps 716 mmHg 67%
    12:00 +14°C° 0 mm 7 mps 716 mmHg 77%
    13:00 +12°C° 0.4 mm 8 mps 715 mmHg 79%
    14:00 +12°C° 0.4 mm 8 mps 715 mmHg 81%
    15:00 +12°C° 0.4 mm 8 mps 715 mmHg 83%
    16:00 +12°C° 0.3 mm 7 mps 716 mmHg 83%
    17:00 +13°C° 0.3 mm 6 mps 716 mmHg 83%
    18:00 +13°C° 0.3 mm 6 mps 717 mmHg 82%
    19:00 +13°C° 0.4 mm 5 mps 717 mmHg 85%
    20:00 +13°C° 0.4 mm 4 mps 717 mmHg 87%
    21:00 +12°C° 0.4 mm 3 mps 718 mmHg 90%
    22:00 +13°C° 0.1 mm 2 mps 718 mmHg 90%
    23:00 +13°C° 0.1 mm 2 mps 718 mmHg 90%

    Tomorrow, 14 November, Thursday

    Time Temperature Precipitation Wind Pressure Humidity
    00:00 +12°C° 0.1 mm 1 mps 718 mmHg 90%
    01:00 +12°C° 0 mm 2 mps 717 mmHg 90%
    02:00 +12°C° 0 mm 2 mps 717 mmHg 89%
    03:00 +11°C° 0 mm 3 mps 716 mmHg 89%
    04:00 +11°C° 0 mm 3 mps 716 mmHg 87%
    05:00 +11°C° 0 mm 3 mps 716 mmHg 86%
    06:00 +11°C° 0 mm 4 mps 715 mmHg 85%
    07:00 +12°C° 0 mm 4 mps 716 mmHg 79%
    08:00 +14°C° 0 mm 4 mps 716 mmHg 74%
    09:00 +15°C° 0 mm 5 mps 716 mmHg 68%
    10:00 +16°C° 0 mm 5 mps 715 mmHg 61%
    11:00 +17°C° 0 mm 5 mps 715 mmHg 55%
    12:00 +19°C° 0 mm 6 mps 714 mmHg 48%
    13:00 +17°C° 0 mm 6 mps 714 mmHg 50%
    14:00 +17°C° 0 mm 7 mps 713 mmHg 51%
    15:00 +16°C° 0 mm 8 mps 713 mmHg 53%
    16:00 +15°C° 0.1 mm 8 mps 713 mmHg 58%
    17:00 +14°C° 0.1 mm 7 mps 713 mmHg 64%
    18:00 +12°C° 0.1 mm 7 mps 713 mmHg 70%
    19:00 +13°C° 0.5 mm 6 mps 713 mmHg 72%
    20:00 +11°C° 0.5 mm 6 mps 713 mmHg 75%
    21:00 +11°C° 0.5 mm 6 mps 713 mmHg 78%
    22:00 +10°C° 2.4 mm 6 mps 713 mmHg 80%
    23:00 +9°C° 2.4 mm 5 mps 713 mmHg 83%

    Day after tomorrow, 15 November, Friday

    Time Temperature Precipitation Wind Pressure Humidity
    00:00 +8°C° 2.4 mm 5 mps 713 mmHg 86%
    01:00 +8°C° 0.8 mm 5 mps 713 mmHg 83%
    02:00 +8°C° 0.8 mm 5 mps 712 mmHg 81%
    03:00 +8°C° 0.8 mm 4 mps 712 mmHg 79%
    04:00 +8°C° 0.1 mm 4 mps 712 mmHg 78%
    05:00 +8°C° 0.1 mm 5 mps 712 mmHg 77%
    06:00 +7°C° 0.1 mm 5 mps 712 mmHg 76%
    07:00 +8°C° 0.2 mm 5 mps 712 mmHg 73%
    08:00 +9°C° 0.2 mm 6 mps 713 mmHg 70%
    09:00 +9°C° 0.2 mm 7 mps 713 mmHg 67%
    10:00 +10°C° 0.3 mm 7 mps 713 mmHg 64%
    11:00 +10°C° 0.3 mm 7 mps 713 mmHg 61%
    12:00 +10°C° 0.3 mm 7 mps 713 mmHg 59%
    13:00 +10°C° 0.2 mm 6 mps 713 mmHg 59%
    14:00 +10°C° 0.2 mm 6 mps 713 mmHg 60%
    15:00 +10°C° 0.2 mm 5 mps 713 mmHg 60%
    16:00 +10°C° 0.1 mm 4 mps 713 mmHg 63%
    17:00 +10°C° 0.1 mm 4 mps 713 mmHg 66%
    18:00 +9°C° 0.1 mm 3 mps 713 mmHg 69%
    19:00 +9°C° 0 mm 3 mps 714 mmHg 70%
    20:00 +9°C° 0 mm 3 mps 714 mmHg 70%
    21:00 +8°C° 0 mm 3 mps 715 mmHg 70%
    22:00 +8°C° 0 mm 3 mps 715 mmHg 70%
    23:00 +7°C° 0 mm 4 mps 715 mmHg 69%

    16 November, Saturday

    Time Temperature Precipitation Wind Pressure Humidity
    00:00 +7°C° 0 mm 4 mps 715 mmHg 69%
    01:00 +7°C° 0 mm 4 mps 714 mmHg 70%
    02:00 +8°C° 0 mm 3 mps 714 mmHg 71%
    03:00 +7°C° 0 mm 3 mps 714 mmHg 73%
    04:00 +7°C° 0 mm 3 mps 714 mmHg 73%
    05:00 +7°C° 0 mm 2 mps 714 mmHg 73%
    06:00 +7°C° 0 mm 2 mps 714 mmHg 74%
    07:00 +7°C° 0 mm 3 mps 715 mmHg 71%
    08:00 +8°C° 0 mm 3 mps 715 mmHg 69%
    09:00 +8°C° 0 mm 4 mps 716 mmHg 66%
    10:00 +8°C° 0.2 mm 4 mps 716 mmHg 65%
    11:00 +9°C° 0.2 mm 5 mps 716 mmHg 65%
    12:00 +9°C° 0.2 mm 5 mps 716 mmHg 64%
    13:00 +9°C° 0.7 mm 5 mps 716 mmHg 65%
    14:00 +9°C° 0.7 mm 6 mps 716 mmHg 66%
    15:00 +8°C° 0.7 mm 6 mps 716 mmHg 66%
    16:00 +8°C° 0.5 mm 6 mps 716 mmHg 68%
    17:00 +7°C° 0.5 mm 6 mps 716 mmHg 70%
    18:00 +5°C° 0.5 mm 6 mps 717 mmHg 72%
    19:00 +5°C° 0.2 mm 6 mps 717 mmHg 73%
    20:00 +5°C° 0.2 mm 6 mps 717 mmHg 73%
    21:00 +5°C° 0.2 mm 6 mps 718 mmHg 74%
    22:00 +5°C° 0.3 mm 6 mps 718 mmHg 74%
    23:00 +6°C° 0.3 mm 5 mps 718 mmHg 75%

    17 November, Sunday

    Time Temperature Precipitation Wind Pressure Humidity
    00:00 +6°C° 0.3 mm 5 mps 718 mmHg 75%
    01:00 +6°C° 0.2 mm 5 mps 717 mmHg 75%
    02:00 +6°C° 0.2 mm 5 mps 717 mmHg 75%
    03:00 +6°C° 0.2 mm 5 mps 717 mmHg 75%
    04:00 +6°C° 0.1 mm 5 mps 717 mmHg 76%
    05:00 +6°C° 0.1 mm 5 mps 717 mmHg 78%
    06:00 +6°C° 0.1 mm 5 mps 717 mmHg 79%
    07:00 +7°C° 0 mm 5 mps 717 mmHg 75%
    08:00 +8°C° 0 mm 6 mps 718 mmHg 71%
    09:00 +9°C° 0 mm 7 mps 718 mmHg 67%
    10:00 +10°C° 0 mm 7 mps 718 mmHg 63%
    11:00 +11°C° 0 mm 8 mps 718 mmHg 60%
    12:00 +11°C° 0 mm 9 mps 718 mmHg 56%
    13:00 +11°C° 0.1 mm 8 mps 717 mmHg 60%
    14:00 +11°C° 0.1 mm 8 mps 717 mmHg 63%
    15:00 +11°C° 0.1 mm 7 mps 717 mmHg 66%
    16:00 +10°C° 0.3 mm 6 mps 717 mmHg 71%
    17:00 +10°C° 0.3 mm 6 mps 717 mmHg 75%
    18:00 +9°C° 0.3 mm 5 mps 717 mmHg 79%
    19:00 +9°C° 0.3 mm 5 mps 717 mmHg 80%
    20:00 +9°C° 0.3 mm 5 mps 717 mmHg 81%
    21:00 +9°C° 0.3 mm 5 mps 717 mmHg 81%
    22:00 +9°C° 0.2 mm 5 mps 716 mmHg 83%
    23:00 +10°C° 0.2 mm 4 mps 716 mmHg 85%

    18 November, Monday

    Time Temperature Precipitation Wind Pressure Humidity
    00:00 +10°C° 0.2 mm 4 mps 716 mmHg 87%
    01:00 +10°C° 0.3 mm 4 mps 716 mmHg 87%
    02:00 +10°C° 0.3 mm 4 mps 716 mmHg 86%
    03:00 +10°C° 0.3 mm 3 mps 716 mmHg 86%
    04:00 +10°C° 0.5 mm 4 mps 716 mmHg 85%
    05:00 +10°C° 0.5 mm 4 mps 716 mmHg 85%
    06:00 +10°C° 0.5 mm 4 mps 716 mmHg 84%
    07:00 +10°C° 0.2 mm 4 mps 717 mmHg 79%
    08:00 +11°C° 0.2 mm 4 mps 718 mmHg 73%
    09:00 +10°C° 0.2 mm 5 mps 718 mmHg 68%
    10:00 +12°C° 0.1 mm 5 mps 719 mmHg 65%
    11:00 +11°C° 0.1 mm 6 mps 719 mmHg 63%
    12:00 +13°C° 0.1 mm 6 mps 719 mmHg 61%
    13:00 +13°C° 0.1 mm 6 mps 719 mmHg 61%
    14:00 +11°C° 0.1 mm 6 mps 719 mmHg 61%
    15:00 +11°C° 0.1 mm 6 mps 719 mmHg 61%
    16:00 +10°C° 0.1 mm 5 mps 720 mmHg 66%
    17:00 +10°C° 0.1 mm 4 mps 720 mmHg 70%
    18:00 +9°C° 0.1 mm 3 mps 720 mmHg 75%
    19:00 +9°C° 0.1 mm 3 mps 721 mmHg 75%
    20:00 +9°C° 0.1 mm 2 mps 721 mmHg 76%
    21:00 +9°C° 0.1 mm 2 mps 721 mmHg 76%
    22:00 +9°C° 0 mm 2 mps 722 mmHg 76%
    23:00 +8°C° 0 mm 2 mps 722 mmHg 76%
    Show more